KF0AIT Weather Reports


Display with metric or nautical units.
time (UTC)temp
F
wind
direction
speed
MPH
gust
MPH
rain 1hr
in
rain 24hr
in
rain mn
in
humidity
%
barometer
mb
20260902000004 72 67 0.0 2.0 0.00 0.00 0.00 68 1008.1
20260901235424 72 67 1.0 2.0 0.00 0.00 0.00 68 1009.2
20260901234503 73 45 0.0 1.0 0.00 0.00 0.00 67 1009.2
20260901233624 74 0 0.0 0.0 0.00 0.00 0.00 63 1009.2
20260901232703 74 14 0.0 2.0 0.00 0.00 0.00 63 1009.2
20260901231803 74 0 0.0 0.0 0.00 0.00 0.00 62 1009.2
20260901230903 74 0 0.0 0.0 0.00 0.00 0.00 62 1009.2
20260901230004 74 0 0.0 0.0 0.00 0.00 0.00 61 1009.2
20260901225424 75 45 0.0 1.0 0.00 0.00 0.00 61 1009.2
20260901224503 75 349 1.0 3.0 0.00 0.00 0.00 60 1009.2
20260901223603 75 278 0.0 3.0 0.00 0.00 0.00 60 1009.2
20260901222703 76 0 0.0 0.0 0.00 0.00 0.00 61 1009.2
20260901221803 76 270 0.0 1.0 0.00 0.00 0.00 59 1009.2
20260901220903 76 270 0.0 1.0 0.00 0.00 0.00 59 1009.2
20260901220003 76 0 0.0 0.0 0.00 0.00 0.00 59 1009.2
20260901215403 76 0 0.0 0.0 0.00 0.00 0.00 59 1009.2
20260901214524 76 0 0.0 0.0 0.00 0.00 0.00 59 1009.2
20260901213624 76 45 0.0 1.0 0.00 0.00 0.00 58 1009.2
20260901212724 76 0 0.0 0.0 0.00 0.00 0.00 58 1009.2
20260901211824 76 0 0.0 0.0 0.00 0.00 0.00 58 1009.2
20260901210903 76 45 0.0 1.0 0.00 0.00 0.00 58 1009.2
20260901210003 77 0 0.0 0.0 0.00 0.00 0.00 58 1009.2
20260901205424 77 337 0.0 1.0 0.00 0.00 0.00 57 1009.2
20260901204503 77 0 0.0 0.0 0.00 0.00 0.00 57 1009.2
20260901203603 78 0 0.0 0.0 0.00 0.00 0.00 57 1009.2
20260901202724 78 0 0.0 0.0 0.00 0.00 0.00 56 1009.2
20260901201803 78 0 0.0 0.0 0.00 0.00 0.00 57 1009.2
20260901200903 78 45 0.0 1.0 0.00 0.00 0.00 57 1009.2
20260901200003 78 0 0.0 0.0 0.00 0.00 0.00 58 1009.2
20260901195403 78 315 0.0 1.0 0.00 0.00 0.00 59 1009.2
20260901194503 77 59 0.0 2.0 0.00 0.00 0.00 59 1009.2
20260901193603 76 0 0.0 0.0 0.00 0.00 0.00 60 1009.2
20260901192703 76 0 0.0 0.0 0.00 0.00 0.00 60 1009.2
20260901191803 76 0 0.0 0.0 0.00 0.00 0.00 61 1009.2
20260901190903 76 0 0.0 0.0 0.00 0.00 0.00 60 1009.2
20260901190024 76 0 0.0 0.0 0.00 0.00 0.00 59 1009.2
20260901185424 76 0 0.0 0.0 0.00 0.00 0.00 59 1009.2
20260901184503 76 0 0.0 0.0 0.00 0.00 0.00 59 1009.2
20260901183603 76 0 0.0 0.0 0.00 0.00 0.00 59 1010.2
20260901182703 76 0 0.0 0.0 0.00 0.00 0.00 60 1010.2
20260901181803 76 0 0.0 0.0 0.00 0.00 0.00 60 1010.2
20260901180903 76 0 0.0 0.0 0.00 0.00 0.00 60 1010.2
20260901180004 75 0 0.0 0.0 0.00 0.00 0.00 60 1010.2
20260901175403 75 0 0.0 0.0 0.00 0.00 0.00 61 1010.2
20260901174524 75 0 0.0 0.0 0.00 0.00 0.00 60 1010.2
20260901173603 75 0 0.0 0.0 0.00 0.00 0.00 60 1010.2
20260901172703 75 45 0.0 1.0 0.00 0.00 0.00 61 1010.2
20260901171803 75 45 0.0 1.0 0.00 0.00 0.00 58 1010.2
20260901170903 76 0 0.0 0.0 0.00 0.00 0.00 59 1011.3
20260901170003 75 0 0.0 0.0 0.00 0.00 0.00 59 1011.3
20260901165424 75 0 0.0 0.0 0.00 0.00 0.00 59 1010.2
20260901164503 75 67 0.0 1.0 0.00 0.00 0.00 59 1010.2
20260901163624 74 50 1.0 3.0 0.00 0.00 0.00 59 1010.2
20260901162703 74 43 0.0 3.0 0.00 0.00 0.00 62 1011.3
20260901161803 74 0 0.0 0.0 0.00 0.00 0.00 65 1011.3
20260901160903 73 0 0.0 0.0 0.00 0.00 0.00 65 1011.3
20260901160004 73 0 0.0 0.0 0.00 0.00 0.00 66 1011.3
20260901155403 73 0 0.0 0.0 0.00 0.00 0.00 66 1011.3
20260901154503 72 0 0.0 0.0 0.00 0.00 0.00 66 1011.3
20260901153603 72 0 0.0 0.0 0.00 0.00 0.00 66 1011.3
20260901152703 71 0 0.0 0.0 0.00 0.00 0.00 67 1011.3
20260901151803 71 0 0.0 0.0 0.00 0.00 0.00 68 1011.3
20260901150924 71 0 0.0 0.0 0.00 0.00 0.00 69 1011.3
20260901150004 70 0 0.0 0.0 0.00 0.00 0.00 71 1011.3
20260901145403 70 0 0.0 0.0 0.00 0.00 0.00 71 1011.3
20260901144503 69 0 0.0 0.0 0.00 0.00 0.00 72 1011.3
20260901143624 69 0 0.0 0.0 0.00 0.00 0.00 72 1011.3
20260901142703 69 0 0.0 0.0 0.00 0.00 0.00 73 1011.3
20260901141803 69 0 0.0 0.0 0.00 0.00 0.00 75 1011.3
20260901140909 68 45 0.0 1.0 0.00 0.00 0.00 78 1011.3
20260901140004 68 45 0.0 1.0 0.00 0.00 0.00 78 1011.3
20260901135403 67 0 0.0 0.0 0.00 0.00 0.00 78 1011.3
20260901134504 67 0 0.0 0.0 0.00 0.00 0.00 78 1011.3
20260901133624 67 0 0.0 0.0 0.00 0.00 0.00 78 1012.3
20260901132703 67 0 0.0 0.0 0.00 0.00 0.00 78 1012.3
20260901131803 66 0 0.0 0.0 0.00 0.00 0.00 79 1012.3
20260901130924 66 0 0.0 0.0 0.00 0.00 0.00 78 1012.3
20260901130004 65 0 0.0 0.0 0.00 0.00 0.00 78 1012.3
20260901125403 65 0 0.0 0.0 0.00 0.00 0.00 78 1012.3
20260901124503 65 0 0.0 0.0 0.00 0.00 0.00 77 1012.3
20260901123603 64 0 0.0 0.0 0.00 0.00 0.00 77 1011.3
20260901122703 64 0 0.0 0.0 0.00 0.00 0.00 78 1011.3
20260901121803 64 0 0.0 0.0 0.00 0.00 0.00 77 1011.3
20260901120924 64 0 0.0 0.0 0.00 0.00 0.00 77 1011.3
20260901120003 63 0 0.0 0.0 0.00 0.00 0.00 77 1011.3
20260901115403 63 0 0.0 0.0 0.00 0.00 0.00 77 1011.3
20260901114503 63 0 0.0 0.0 0.00 0.00 0.00 77 1011.3
20260901113603 63 0 0.0 0.0 0.00 0.00 0.00 77 1011.3
20260901112703 63 0 0.0 0.0 0.00 0.00 0.00 77 1011.3
20260901111803 64 0 0.0 0.0 0.00 0.00 0.00 80 1011.3
20260901110903 64 0 0.0 0.0 0.00 0.00 0.00 80 1011.3
20260901110024 64 0 0.0 0.0 0.00 0.00 0.00 78 1011.3
20260901105403 64 0 0.0 0.0 0.00 0.00 0.00 78 1010.2
20260901104503 64 0 0.0 0.0 0.00 0.00 0.00 78 1010.2
20260901103624 64 0 0.0 0.0 0.00 0.00 0.00 77 1010.2
20260901102704 64 0 0.0 0.0 0.00 0.00 0.00 77 1010.2
20260901101824 64 0 0.0 0.0 0.00 0.00 0.00 76 1010.2
20260901100903 65 0 0.0 0.0 0.00 0.00 0.00 75 1010.2
20260901100003 65 0 0.0 0.0 0.00 0.00 0.00 75 1010.2
20260901095403 65 0 0.0 0.0 0.00 0.00 0.00 74 1009.2
20260901094503 65 0 0.0 0.0 0.00 0.00 0.00 74 1009.2
20260901093603 66 0 0.0 0.0 0.00 0.00 0.00 74 1009.2
20260901092703 66 0 0.0 0.0 0.00 0.00 0.00 74 1009.2
20260901091824 66 0 0.0 0.0 0.00 0.00 0.00 74 1009.2
20260901090903 66 0 0.0 0.0 0.00 0.00 0.00 74 1009.2
20260901090003 66 0 0.0 0.0 0.00 0.00 0.00 74 1009.2
20260901085403 66 0 0.0 0.0 0.00 0.00 0.00 74 1009.2
20260901084503 66 0 0.0 0.0 0.00 0.00 0.00 74 1009.2
20260901083603 66 0 0.0 0.0 0.00 0.00 0.00 73 1009.2
20260901082703 67 0 0.0 0.0 0.00 0.00 0.00 73 1009.2
20260901081824 67 0 0.0 0.0 0.00 0.00 0.00 73 1009.2
20260901080903 67 0 0.0 0.0 0.00 0.00 0.00 73 1009.2
20260901080003 67 0 0.0 0.0 0.00 0.00 0.00 73 1009.2
20260901075403 67 0 0.0 0.0 0.00 0.00 0.00 73 1010.2
20260901074524 67 0 0.0 0.0 0.00 0.00 0.00 72 1010.2
20260901073603 67 0 0.0 0.0 0.00 0.00 0.00 71 1009.2
20260901072703 68 0 0.0 0.0 0.00 0.00 0.00 71 1009.2
20260901071824 68 0 0.0 0.0 0.00 0.00 0.00 71 1009.2
20260901070903 68 0 0.0 0.0 0.00 0.00 0.00 70 1010.2
20260901070024 68 0 0.0 0.0 0.00 0.00 0.00 70 1010.2
20260901065403 68 0 0.0 0.0 0.00 0.00 0.00 70 1010.2
20260901064503 68 0 0.0 0.0 0.00 0.00 0.00 70 1010.2
20260901063603 69 0 0.0 0.0 0.00 0.00 0.00 69 1010.2
20260901062703 69 0 0.0 0.0 0.00 0.00 0.00 69 1010.2
20260901061803 69 0 0.0 0.0 0.00 0.00 0.00 70 1010.2
20260901060903 69 0 0.0 0.0 0.00 0.00 0.00 70 1010.2
20260901060003 69 0 0.0 0.0 0.00 0.00 0.00 70 1010.2
20260901055424 69 0 0.0 0.0 0.00 0.00 0.00 70 1010.2
20260901054503 69 337 0.0 2.0 0.00 0.00 0.00 70 1010.2
20260901053603 69 0 0.0 0.0 0.00 0.00 0.00 70 1010.2
20260901052723 69 0 0.0 0.0 0.00 0.00 0.00 69 1010.2
20260901051803 69 0 0.0 0.0 0.00 0.00 0.00 69 1010.2
20260901050903 70 0 0.0 0.0 0.00 0.00 0.00 68 1010.2
20260901050003 70 0 0.0 0.0 0.00 0.00 0.00 68 1010.2
20260901045403 70 0 0.0 0.0 0.00 0.00 0.00 68 1010.2
20260901044505 70 0 0.0 0.0 0.00 0.00 0.00 68 1010.2
20260901043603 71 0 0.0 0.0 0.00 0.00 0.00 68 1010.2
20260901042703 71 0 0.0 0.0 0.00 0.00 0.00 67 1009.2
20260901041803 71 0 0.0 0.0 0.00 0.00 0.00 66 1009.2
20260901040903 71 0 0.0 0.0 0.00 0.00 0.00 66 1009.2
20260901040003 72 0 0.0 0.0 0.00 0.00 0.00 65 1009.2
20260901035403 72 0 0.0 0.0 0.00 0.00 0.00 66 1010.2
20260901034503 72 0 0.0 0.0 0.00 0.00 0.00 65 1010.2
20260901033603 72 0 0.0 0.0 0.00 0.00 0.00 65 1010.2
20260901032703 72 0 0.0 0.0 0.00 0.00 0.00 65 1010.2
20260901031803 72 0 0.0 0.0 0.00 0.00 0.00 64 1010.2
20260901030924 73 0 0.0 0.0 0.00 0.00 0.00 63 1009.2
20260901030003 73 0 0.0 0.0 0.00 0.00 0.00 62 1009.2
20260901025403 73 0 0.0 0.0 0.00 0.00 0.00 62 1009.2
20260901024503 73 0 0.0 0.0 0.00 0.00 0.00 61 1009.2
20260901023603 74 0 0.0 0.0 0.00 0.00 0.00 61 1009.2
20260901022703 74 0 0.0 0.0 0.00 0.00 0.00 60 1009.2
20260901021803 74 0 0.0 0.0 0.00 0.00 0.00 60 1009.2
20260901020903 74 0 0.0 0.0 0.00 0.00 0.00 59 1009.2
20260901020003 75 0 0.0 0.0 0.00 0.00 0.00 56 1009.2
20260901015403 75 0 0.0 0.0 0.00 0.00 0.00 56 1008.1
20260901014503 75 0 0.0 0.0 0.00 0.00 0.00 56 1008.1
20260901013603 76 0 0.0 0.0 0.00 0.00 0.00 56 1008.1
20260901012703 76 0 0.0 0.0 0.00 0.00 0.00 55 1008.1
20260901011803 76 0 0.0 0.0 0.00 0.00 0.00 54 1008.1
20260901010903 77 0 0.0 0.0 0.00 0.00 0.00 54 1008.1
20260901010024 77 0 0.0 0.0 0.00 0.00 0.00 53 1008.1
20260901005403 78 0 0.0 0.0 0.00 0.00 0.00 52 1008.1
20260901004503 78 0 0.0 0.0 0.00 0.00 0.00 52 1008.1
20260901003603 79 0 0.0 0.0 0.00 0.00 0.00 49 1008.1
20260901002703 79 0 0.0 0.0 0.00 0.00 0.00 49 1008.1
20260901001824 79 0 0.0 0.0 0.00 0.00 0.00 48 1008.1
20260901000903 80 0 0.0 0.0 0.00 0.00 0.00 49 1008.1